Location: Emporia
(38.4040°N, 96.1810°W)
Time: 23:12:55
(UTC-05:00)

Amateur Radio Satellites - All Passes

Search period start: 21 September 2014 22:42
Search period end: 22 September 2014 22:42
Location: Emporia, 38.4040°N, 96.1810°W

Satellite Date Start Highest point End Downlink Frequencies (MHz)
Time Altitude Azimuth
UKube-1 21 Sep 22:52:54 22:56:42 30° 263° (W) 23:00:31 145.840 MHz, 145.915 MHz
HO-68 21 Sep 23:11:04 23:15:58 20° 268° (W) 23:20:55 435.675 MHz FM
ZACube-1 21 Sep 23:12:07 23:16:30 69° 259° (W) 23:21:01 437.345 MHz
UOSAT-12 21 Sep 23:17:35 23:21:05 22° 111° (ESE) 23:24:39 437.025 FM, 437.400 FM
SO-50 21 Sep 23:33:12 23:36:55 25° 312° (NW) 23:40:45 436.795 FM
Sapphire 21 Sep 23:37:09 23:38:56 12° 258° (WSW) 23:40:43 437.095 MHz 1200 baud AX-25 AFSK
Oscar 10/S400 22 Sep 00:03:19 00:51:54 56° 206° (SSW) 09:11:56 145.825 - 145.975 CW/USB, Beacon 145.810 USB
FUNcube-1 22 Sep 00:07:12 00:10:11 18° 268° (W) 00:13:13 145.950 - 145.970 MHz USB
UOSAT-12 22 Sep 00:56:37 01:00:57 40° 307° (NW) 01:05:24 437.025 FM, 437.400 FM
Oscar 16 22 Sep 01:46:43 01:49:33 15° 91° (E) 01:52:21 437.025 USB, Beacon 2401.1428
Saudisat 1A 22 Sep 01:58:05 02:02:25 52° 56° (NE) 02:06:43 436.775 MHz
PANSAT 22 Sep 02:03:31 02:06:06 17° 174° (S) 02:08:41 not established
KITSAT 1 22 Sep 02:05:47 02:08:25 12° 25° (NNE) 02:11:04 435.175 FM
ISS 22 Sep 02:09:52 02:13:09 63° 138° (SE) 02:16:27 145.800 FM
ITAMSAT 1 22 Sep 02:34:54 02:38:21 18° 93° (E) 02:41:48 435.822 SSB
Uribyol 2 22 Sep 02:38:08 02:41:58 21° 94° (E) 02:45:48 436.500 FM
Oscar 19 22 Sep 02:44:53 02:49:57 55° 100° (E) 02:54:58 437.125 CW, 437.150 USB
AO-27 22 Sep 03:09:29 03:14:23 39° 98° (E) 03:19:15 436.795 MHz FM
RS-15 22 Sep 03:11:59 03:20:54 29° 104° (ESE) 03:29:38 29.354 - 29.394 USB, Beacon 29.352 USB
TMSAT-1 22 Sep 03:14:04 03:16:55 15° 91° (E) 03:19:45 436.925 FM
AO-Echo 22 Sep 03:16:08 03:20:57 55° 101° (E) 03:25:53 ?
JAS-1B 22 Sep 03:22:23 03:28:00 59° 101° (ESE) 03:33:44 435.800 - 435.900 CW/SSB
Oscar 16 22 Sep 03:24:11 03:29:17 60° 287° (WNW) 03:34:20 437.025 USB, Beacon 2401.1428
Saudisat 1A 22 Sep 03:39:07 03:41:32 15° 251° (WSW) 03:43:56 436.775 MHz
PANSAT 22 Sep 03:43:09 03:45:40 17° 187° (S) 03:48:10 not established
ISS 22 Sep 03:47:39 03:50:07 19° 335° (NNW) 03:52:36 145.800 FM
KITSAT 1 22 Sep 03:58:57 04:06:28 40° 51° (NE) 04:13:57 435.175 FM
ITAMSAT 1 22 Sep 04:13:03 04:18:07 52° 288° (WNW) 04:23:09 435.822 SSB
Gurwin Techsat 1B 22 Sep 04:16:36 04:21:57 83° 103° (ESE) 04:27:16 435.225 FM
Uribyol 2 22 Sep 04:16:40 04:21:37 45° 289° (WNW) 04:26:34 436.500 FM
Oscar 19 22 Sep 04:25:30 04:28:49 18° 296° (WNW) 04:32:08 437.125 CW, 437.150 USB
Uosat F 22 Sep 04:31:07 04:32:58 12° 91° (E) 04:34:50 435.120 FM
OPAL 22 Sep 04:43:35 04:48:25 41° 68° (ENE) 04:53:18 ?
AO-27 22 Sep 04:49:31 04:53:38 24° 294° (WNW) 04:57:45 436.795 MHz FM
TMSAT-1 22 Sep 04:52:00 04:57:15 64° 286° (WNW) 05:02:28 436.925 FM
AO-Echo 22 Sep 04:56:19 04:59:18 16° 295° (WNW) 05:02:19 ?
JAS-1B 22 Sep 05:14:41 05:18:11 17° 299° (WNW) 05:21:40 435.800 - 435.900 CW/SSB
AO-7 22 Sep 05:18:33 05:26:30 48° 101° (E) 05:34:23 29.400 - 29.500 MHz
RS-15 22 Sep 05:21:12 05:32:14 71° 304° (NW) 05:43:11 29.354 - 29.394 USB, Beacon 29.352 USB
KITSAT 1 22 Sep 05:54:21 06:01:56 46° 250° (WSW) 06:09:29 435.175 FM
Gurwin Techsat 1B 22 Sep 05:59:03 06:01:10 12° 300° (WNW) 06:03:18 435.225 FM
Uosat F 22 Sep 06:07:12 06:12:13 70° 286° (WNW) 06:17:13 435.120 FM
OPAL 22 Sep 06:23:21 06:27:24 23° 264° (W) 06:31:29 ?
SO-50 22 Sep 06:25:08 06:29:07 25° 48° (NE) 06:33:08 436.795 FM
JAS-2 22 Sep 06:25:32 06:31:06 32° 97° (E) 06:37:14 435.800 - 435.900 CW/SSB, 435.910 FM
Hamsat 22 Sep 07:03:30 07:07:40 53° 100° (E) 07:11:45 145.90 MHz
ISS 22 Sep 07:04:29 07:05:53 12° 16° (NNE) 07:07:16 145.800 FM
STRAND 1 22 Sep 07:07:35 07:12:33 58° 73° (ENE) 07:17:34 ?
AO-7 22 Sep 07:11:40 07:19:02 38° 299° (WNW) 07:26:25 29.400 - 29.500 MHz
RS-15 22 Sep 07:38:41 07:46:58 24° 331° (NNW) 07:55:18 29.354 - 29.394 USB, Beacon 29.352 USB
UOSAT-12 22 Sep 07:48:27 07:51:24 16° 43° (NE) 07:54:19 437.025 FM, 437.400 FM
SO-50 22 Sep 08:05:17 08:09:49 41° 245° (WSW) 08:14:21 436.795 FM
JAS-2 22 Sep 08:10:24 08:16:09 41° 290° (WNW) 08:22:33 435.800 - 435.900 CW/SSB, 435.910 FM
SO-67 22 Sep 08:13:07 08:16:26 43° 99° (E) 08:19:43 435.3500 MHz FM
MaSat-1 22 Sep 08:15:36 08:20:33 68° 112° (ESE) 08:25:26 437.345 MHz
ISS 22 Sep 08:40:02 08:43:15 46° 35° (NE) 08:46:28 145.800 FM
Hamsat 22 Sep 08:41:22 08:43:07 12° 295° (WNW) 08:44:52 145.90 MHz
STRAND 1 22 Sep 08:49:15 08:52:06 15° 268° (W) 08:54:58 ?
HO-68 22 Sep 08:53:06 08:56:00 13° 89° (E) 08:58:54 435.675 MHz FM
UOSAT-12 22 Sep 09:27:21 09:32:03 70° 241° (WSW) 09:36:39 437.025 FM, 437.400 FM
MaSat-1 22 Sep 09:54:35 09:57:41 16° 308° (NW) 10:00:43 437.345 MHz
RS-15 22 Sep 09:58:51 10:05:13 16° 9° (N) 10:11:38 29.354 - 29.394 USB, Beacon 29.352 USB
ISS 22 Sep 10:17:28 10:19:42 17° 230° (SW) 10:21:55 145.800 FM
Oscar 11 22 Sep 10:22:56 10:26:21 22° 95° (E) 10:29:43 145.825 FM, Beacon 2401.500 USB
HO-68 22 Sep 10:37:23 10:44:37 84° 106° (ESE) 10:51:48 435.675 MHz FM
UKube-1 22 Sep 10:41:59 10:46:14 49° 100° (E) 10:50:27 145.840 MHz, 145.915 MHz
Sapphire 22 Sep 10:51:31 10:53:39 12° 102° (ESE) 10:55:48 437.095 MHz 1200 baud AX-25 AFSK
ZACube-1 22 Sep 11:03:23 11:07:18 27° 95° (E) 11:11:09 437.345 MHz
PCSat 22 Sep 11:15:46 11:20:02 24° 107° (ESE) 11:24:19 145.825 MHz
FUNcube-1 22 Sep 11:56:05 12:00:43 80° 284° (WNW) 12:05:15 145.950 - 145.970 MHz USB
Oscar 11 22 Sep 11:58:46 12:02:31 29° 290° (WNW) 12:06:14 145.825 FM, Beacon 2401.500 USB
RS-15 22 Sep 12:12:13 12:22:15 37° 42° (NE) 12:32:33 29.354 - 29.394 USB, Beacon 29.352 USB
UKube-1 22 Sep 12:19:37 12:22:00 15° 296° (WNW) 12:24:22 145.840 MHz, 145.915 MHz
HO-68 22 Sep 12:26:49 12:31:26 19° 303° (WNW) 12:36:03 435.675 MHz FM
Sapphire 22 Sep 12:30:56 12:36:20 78° 298° (WNW) 12:41:46 437.095 MHz 1200 baud AX-25 AFSK
ZACube-1 22 Sep 12:39:42 12:43:36 27° 291° (WNW) 12:47:27 437.345 MHz
PCSat 22 Sep 12:58:01 13:03:09 43° 304° (WNW) 13:08:19 145.825 MHz
Oscar 16 22 Sep 13:02:04 13:05:46 20° 65° (ENE) 13:09:28 437.025 USB, Beacon 2401.1428
ITAMSAT 1 22 Sep 13:51:27 13:55:31 24° 66° (ENE) 13:59:35 435.822 SSB
Uribyol 2 22 Sep 13:54:34 13:58:51 27° 67° (ENE) 14:03:10 436.500 FM
Gurwin Techsat 1B 22 Sep 13:59:39 14:02:15 14° 61° (ENE) 14:04:51 435.225 FM
Oscar 19 22 Sep 14:00:08 14:05:17 69° 74° (ENE) 14:10:28 437.125 CW, 437.150 USB
JAS-1B 22 Sep 14:04:11 14:12:15 51° 71° (ENE) 14:19:02 435.800 - 435.900 CW/SSB
Sapphire 22 Sep 14:18:14 14:20:39 13° 318° (NW) 14:23:05 437.095 MHz 1200 baud AX-25 AFSK
RS-15 22 Sep 14:24:23 14:35:25 70° 245° (WSW) 14:46:57 29.354 - 29.394 USB, Beacon 29.352 USB
AO-27 22 Sep 14:26:10 14:31:10 52° 72° (ENE) 14:36:11 436.795 MHz FM
AO-Echo 22 Sep 14:27:55 14:32:34 59° 74° (ENE) 14:37:11 ?
AO-7 22 Sep 14:30:14 14:32:44 12° 46° (NE) 14:35:14 29.400 - 29.500 MHz
TMSAT-1 22 Sep 14:33:10 14:37:01 21° 65° (ENE) 14:40:53 436.925 FM
Oscar 16 22 Sep 14:39:44 14:44:43 48° 260° (W) 14:49:46 437.025 USB, Beacon 2401.1428
ITAMSAT 1 22 Sep 15:29:57 15:34:45 39° 262° (W) 15:39:36 435.822 SSB
Uribyol 2 22 Sep 15:33:31 15:38:10 34° 263° (W) 15:42:52 436.500 FM
Gurwin Techsat 1B 22 Sep 15:36:15 15:41:33 74° 258° (WSW) 15:46:52 435.225 FM
Oscar 19 22 Sep 15:42:45 15:45:05 13° 269° (W) 15:47:25 437.125 CW, 437.150 USB
Uosat F 22 Sep 15:42:46 15:45:41 16° 63° (ENE) 15:48:36 435.120 FM
JAS-1B 22 Sep 15:55:32 16:02:51 31° 263° (W) 16:09:15 435.800 - 435.900 CW/SSB
Saudisat 1A 22 Sep 16:04:17 16:07:24 19° 111° (ESE) 16:10:31 436.775 MHz
AO-27 22 Sep 16:07:37 16:10:57 17° 267° (W) 16:14:19 436.795 MHz FM
AO-Echo 22 Sep 16:09:46 16:11:43 12° 269° (W) 16:13:39 ?
TMSAT-1 22 Sep 16:11:30 16:16:34 47° 261° (W) 16:21:41 436.925 FM
AO-7 22 Sep 16:15:41 16:23:44 57° 66° (ENE) 16:31:46 29.400 - 29.500 MHz
RS-15 22 Sep 16:41:18 16:45:45 13° 263° (W) 16:50:16 29.354 - 29.394 USB, Beacon 29.352 USB
OPAL 22 Sep 16:57:41 16:59:13 11° 92° (E) 17:00:44 ?
Uosat F 22 Sep 17:19:03 17:23:57 59° 259° (WSW) 17:28:54 435.120 FM
Saudisat 1A 22 Sep 17:42:31 17:46:40 40° 306° (NW) 17:50:51 436.775 MHz
Hamsat 22 Sep 17:55:21 17:59:13 32° 71° (ENE) 18:03:06 145.90 MHz
AO-7 22 Sep 18:09:47 18:16:49 30° 263° (W) 18:23:53 29.400 - 29.500 MHz
MaSat-1 22 Sep 18:10:26 18:14:04 79° 247° (WSW) 18:17:09 437.345 MHz
JAS-2 22 Sep 18:21:43 18:26:56 75° 75° (ENE) 18:32:07 435.800 - 435.900 CW/SSB, 435.910 FM
KITSAT 1 22 Sep 18:26:16 18:33:07 32° 106° (ESE) 18:39:58 435.175 FM
OPAL 22 Sep 18:33:28 18:38:38 76° 287° (WNW) 18:43:41 ?
SO-67 22 Sep 18:46:23 18:47:49 12° 68° (ENE) 18:49:16 435.3500 MHz FM
STRAND 1 22 Sep 19:20:26 19:24:23 22° 94° (E) 19:28:19 ?
Hamsat 22 Sep 19:31:59 19:35:12 20° 266° (W) 19:38:27 145.90 MHz
Sapphire 22 Sep 19:40:32 19:41:16 10° 39° (NE) 19:41:59 437.095 MHz 1200 baud AX-25 AFSK
PCSat 22 Sep 20:05:00 20:08:31 17° 46° (NE) 20:12:01 145.825 MHz
JAS-2 22 Sep 20:12:06 20:12:40 10° 271° (W) 20:13:13 435.800 - 435.900 CW/SSB, 435.910 FM
SO-67 22 Sep 20:17:22 20:20:31 33° 262° (W) 20:23:41 435.3500 MHz FM
KITSAT 1 22 Sep 20:20:11 20:28:05 56° 305° (NW) 20:36:01 435.175 FM
STRAND 1 22 Sep 20:58:54 21:03:41 40° 290° (WNW) 21:08:28 ?
HO-68 22 Sep 21:04:02 21:10:54 54° 68° (ENE) 21:17:49 435.675 MHz FM
Oscar 11 22 Sep 21:17:27 21:20:05 16° 66° (ENE) 21:22:43 145.825 FM, Beacon 2401.500 USB
Sapphire 22 Sep 21:20:27 21:25:50 60° 60° (ENE) 21:31:11 437.095 MHz 1200 baud AX-25 AFSK
UKube-1 22 Sep 21:36:09 21:40:05 35° 71° (ENE) 21:44:02 145.840 MHz, 145.915 MHz
PCSat 22 Sep 21:47:06 21:52:32 75° 245° (WSW) 21:57:55 145.825 MHz
ZACube-1 22 Sep 21:59:06 22:02:12 19° 66° (ENE) 22:05:22 437.345 MHz
SO-50 22 Sep 22:18:27 22:22:55 85° 300° (WNW) 22:27:31 436.795 FM
KITSAT 1 22 Sep 22:21:05 22:25:29 15° 329° (NNW) 22:29:54 435.175 FM
